STARLINK-31955, 59939

Orbit data source: Space-Track

STARLINK-31955, 59939 is a payload satellite owned by SpaceX/Seattle (US) in LEO that was launched on Sat, 01 Jun 2024 UTC via an FALCON 9 launch vehicle from the Air Force Eastern Test Range (AFETR). Payload-class satellites include a variety of spacecraft equipped with specific instruments for various scientific and technological missions. These include communications satellites like Starlink; space stations such as the ISS; scientific satellites like the Hubble; Earth observation satellites from companies like Planet Labs, Umbra, and HawkEye 360; GPS; miniature CubeSats for education and research; and military/defense satellites.

Loading next visibility...
Identifier
59939, 2024-106T
Orbit
LEO
Country
Flag of USUS
Related business
Manufacturer
SpaceX/Seattle
Mission
Operational Commercial Communications
Bus & Motor
STARLINK V2M, Unknown motor
Mass
730 kg wet, ~700 kg dry
Launch date (UTC)
2024-06-01 (2 years ago)
Launch vehicle
FALCON 9
Launch site
Air Force Eastern Test Range (AFETR)
Object type
Payload
Rocket body
Debris
Shape & HBR
Box + 2 Pan, 17.7 m
Radar Cross Section
33.884 m², Large (>1 m²)

Expand to show TLE details & history
Last TLE update: 23 hours ago

TLE from 23 hours ago
0 STARLINK-31955
1 59939U 24106T   25340.50526275  .00000875  00000-0  41355-4 0  9996
2 59939  43.0073 138.5947 0002023 285.3493  74.7136 15.27566024 86316
Epoch: 2025-12-06T12:07Z
TLE epoch observation values (Epoch: 2025-12-06T12:07:34.701Z)
Latitude
0.00004°
Longitude
-118.83189°
Altitude
482.502 km
Speed
7.626 km/s
True Right ascension
09h 14m 22s
True Declination
0° 00' 00"
Sunlit
Object was in full shadow at epoch
Visualization orbit readout
Latitude
Unknown
Longitude
Unknown
Altitude
Unknown
Speed
Unknown
Apparent Right ascension
Unknown
Apparent Declination
Unknown
Sunlit
N/A
Visualization observer readout
Local Sidereal Time
08:55:13
Azimuth
Unknown
Elevation
Unknown
Doppler factor
Unknown
Orbital elements
Apogee altitude
486.423 km
Perigee altitude
483.646 km
Semi-major axis
6,863.172 km
Eccentricity
0.0002
Inclination
43.0073°
RAAN
138.5947°
Arg. of periapsis
285.3493°
True anomaly
74.73596°
Mean anomaly
74.7136°
Eccentric anomaly
74.72478°
Mean motion
3.8173 °/min
Orbital period
94.31 mins
BSTAR
0.000041355
Loading maneuver chart data...
Computing Atmospheric mass density...
Loading historical data...
Loading historical data...
Loading historical data...
Loading historical data...
Loading historical data...
Loading historical data...
Loading historical data...

Documentation

Showing up to 5 results
|